TimeEDT,TemperatureF,Dew PointF,Humidity,Sea Level PressureIn,VisibilityMPH,Wind Direction,Wind SpeedMPH,Gust SpeedMPH,PrecipitationIn,Events,Conditions,WindDirDegrees,DateUTC
12:15 AM,71.6,69.8,94,29.85,3.0,Calm,Calm,-,N/A,,Overcast,0,2013-08-29 04:15:00
12:35 AM,71.6,69.8,94,29.85,2.5,NE,4.6,-,N/A,,Overcast,50,2013-08-29 04:35:00
12:55 AM,71.6,69.8,94,29.86,4.0,Calm,Calm,-,N/A,,Overcast,0,2013-08-29 04:55:00
1:15 AM,71.6,69.8,94,29.86,4.0,NNE,4.6,-,N/A,,Overcast,30,2013-08-29 05:15:00
1:35 AM,71.6,69.8,94,29.86,4.0,NNE,4.6,-,N/A,,Overcast,20,2013-08-29 05:35:00
1:55 AM,71.6,69.8,94,29.86,5.0,NE,3.5,-,N/A,,Overcast,40,2013-08-29 05:55:00
2:15 AM,71.6,69.8,94,29.86,7.0,Calm,Calm,-,N/A,,Overcast,0,2013-08-29 06:15:00
2:35 AM,71.6,68.0,88,29.86,4.0,Calm,Calm,-,N/A,,Scattered Clouds,0,2013-08-29 06:35:00
2:55 AM,69.8,66.2,88,29.86,2.5,North,3.5,-,N/A,,Clear,10,2013-08-29 06:55:00
3:15 AM,69.8,66.2,88,29.86,2.5,NNE,4.6,-,N/A,,Clear,30,2013-08-29 07:15:00
3:35 AM,69.8,66.2,88,29.86,4.0,NNE,6.9,-,N/A,,Partly Cloudy,20,2013-08-29 07:35:00
3:55 AM,69.8,66.2,88,29.87,4.0,NNE,4.6,-,N/A,,Mostly Cloudy,20,2013-08-29 07:55:00
4:15 AM,69.8,66.2,88,29.87,5.0,NNE,5.8,-,N/A,,Scattered Clouds,30,2013-08-29 08:15:00
4:35 AM,69.8,66.2,88,29.87,8.0,NNE,4.6,-,N/A,,Mostly Cloudy,20,2013-08-29 08:35:00
4:55 AM,69.8,66.2,88,29.87,5.0,NNE,5.8,-,N/A,,Overcast,30,2013-08-29 08:55:00
5:15 AM,69.8,66.2,88,29.88,4.0,NNE,5.8,-,N/A,,Overcast,30,2013-08-29 09:15:00
5:35 AM,69.8,68.0,94,29.88,3.0,NE,9.2,-,N/A,,Overcast,50,2013-08-29 09:35:00
5:55 AM,71.6,69.8,94,29.88,3.0,NE,11.5,-,N/A,,Overcast,50,2013-08-29 09:55:00
6:15 AM,71.6,69.8,94,29.89,3.0,ENE,12.7,16.1,N/A,,Overcast,60,2013-08-29 10:15:00
6:35 AM,73.4,69.8,88,29.89,3.0,ENE,12.7,-,N/A,,Overcast,60,2013-08-29 10:35:00
6:55 AM,73.4,69.8,88,29.90,3.0,ENE,9.2,16.1,N/A,,Overcast,60,2013-08-29 10:55:00
7:15 AM,73.4,69.8,88,29.90,4.0,ENE,9.2,-,N/A,,Overcast,60,2013-08-29 11:15:00
7:35 AM,73.4,69.8,88,29.91,4.0,ENE,9.2,-,N/A,,Overcast,60,2013-08-29 11:35:00
7:55 AM,73.4,69.8,88,29.92,5.0,ENE,4.6,-,N/A,,Overcast,60,2013-08-29 11:55:00
8:15 AM,73.4,69.8,88,29.92,6.0,ENE,9.2,-,N/A,,Overcast,60,2013-08-29 12:15:00
8:35 AM,73.4,69.8,88,29.93,7.0,ENE,9.2,17.3,N/A,,Overcast,70,2013-08-29 12:35:00
8:55 AM,73.4,69.8,88,29.94,8.0,ENE,10.4,-,N/A,,Overcast,60,2013-08-29 12:55:00
9:15 AM,73.4,69.8,88,29.94,8.0,NE,12.7,-,N/A,,Overcast,50,2013-08-29 13:15:00
9:35 AM,73.4,69.8,88,29.95,9.0,NE,15.0,-,N/A,,Overcast,50,2013-08-29 13:35:00
9:55 AM,73.4,69.8,88,29.95,10.0,NE,9.2,17.3,N/A,,Overcast,50,2013-08-29 13:55:00
10:15 AM,73.4,68.0,83,29.96,10.0,NE,9.2,-,N/A,,Overcast,50,2013-08-29 14:15:00
10:35 AM,73.4,68.0,83,29.96,10.0,NE,12.7,-,N/A,,Overcast,50,2013-08-29 14:35:00
10:55 AM,75.2,68.0,78,29.97,10.0,ENE,12.7,18.4,N/A,,Overcast,70,2013-08-29 14:55:00
11:15 AM,75.2,66.2,73,29.97,10.0,ENE,15.0,23.0,N/A,,Overcast,60,2013-08-29 15:15:00
11:35 AM,75.2,66.2,73,29.98,10.0,ENE,13.8,20.7,N/A,,Overcast,70,2013-08-29 15:35:00
11:55 AM,73.4,64.4,73,29.98,10.0,NE,12.7,19.6,N/A,,Overcast,50,2013-08-29 15:55:00
12:15 PM,73.4,64.4,73,29.98,10.0,NE,12.7,17.3,N/A,,Overcast,50,2013-08-29 16:15:00
12:35 PM,73.4,64.4,73,29.99,10.0,NE,11.5,-,N/A,,Overcast,40,2013-08-29 16:35:00
12:55 PM,75.2,64.4,69,29.99,10.0,NE,13.8,19.6,N/A,,Overcast,40,2013-08-29 16:55:00
1:15 PM,75.2,66.2,73,29.99,10.0,ENE,16.1,23.0,N/A,,Overcast,60,2013-08-29 17:15:00
1:35 PM,75.2,64.4,69,29.99,10.0,NE,11.5,20.7,N/A,,Overcast,50,2013-08-29 17:35:00
1:55 PM,75.2,64.4,69,30.00,10.0,ENE,15.0,23.0,N/A,,Overcast,60,2013-08-29 17:55:00
2:15 PM,75.2,64.4,69,30.00,10.0,NE,17.3,-,N/A,,Overcast,50,2013-08-29 18:15:00
2:35 PM,75.2,64.4,69,30.00,10.0,ENE,11.5,-,N/A,,Overcast,70,2013-08-29 18:35:00
2:55 PM,75.2,64.4,69,30.00,10.0,NE,12.7,24.2,N/A,,Overcast,50,2013-08-29 18:55:00
3:15 PM,75.2,64.4,69,30.00,10.0,NE,15.0,21.9,N/A,,Scattered Clouds,50,2013-08-29 19:15:00
3:35 PM,75.2,64.4,69,30.00,10.0,ENE,15.0,21.9,N/A,,Clear,70,2013-08-29 19:35:00
3:55 PM,75.2,62.6,65,30.00,10.0,ENE,17.3,23.0,N/A,,Clear,60,2013-08-29 19:55:00
4:15 PM,75.2,62.6,65,30.00,10.0,NE,16.1,24.2,N/A,,Clear,50,2013-08-29 20:15:00
4:35 PM,75.2,62.6,65,29.99,10.0,ENE,19.6,25.3,N/A,,Clear,60,2013-08-29 20:35:00
4:55 PM,75.2,62.6,65,30.00,10.0,ENE,13.8,17.3,N/A,,Clear,60,2013-08-29 20:55:00
5:15 PM,75.2,62.6,65,30.00,10.0,NE,12.7,21.9,N/A,,Clear,50,2013-08-29 21:15:00
5:35 PM,75.2,62.6,65,30.00,10.0,ENE,10.4,21.9,N/A,,Clear,60,2013-08-29 21:35:00
5:55 PM,73.4,64.4,73,30.00,10.0,NE,11.5,18.4,N/A,,Clear,50,2013-08-29 21:55:00
6:15 PM,73.4,64.4,73,30.00,10.0,NE,9.2,-,N/A,,Clear,50,2013-08-29 22:15:00
6:35 PM,73.4,64.4,73,30.01,10.0,East,9.2,-,N/A,,Clear,80,2013-08-29 22:35:00
6:55 PM,71.6,64.4,78,30.01,10.0,ENE,8.1,-,N/A,,Clear,70,2013-08-29 22:55:00
7:15 PM,71.6,64.4,78,30.01,10.0,ENE,8.1,-,N/A,,Clear,70,2013-08-29 23:15:00
7:35 PM,71.6,64.4,78,30.02,10.0,ENE,9.2,-,N/A,,Clear,60,2013-08-29 23:35:00
7:55 PM,69.8,64.4,83,30.02,10.0,ENE,6.9,-,N/A,,Clear,60,2013-08-29 23:55:00
8:15 PM,69.8,64.4,83,30.03,10.0,NE,5.8,-,N/A,,Clear,50,2013-08-30 00:15:00
8:35 PM,69.8,64.4,83,30.04,10.0,ENE,6.9,-,N/A,,Clear,60,2013-08-30 00:35:00
8:55 PM,69.8,64.4,83,30.04,10.0,ENE,5.8,-,N/A,,Clear,70,2013-08-30 00:55:00
9:15 PM,69.8,64.4,83,30.04,10.0,ENE,6.9,-,N/A,,Clear,70,2013-08-30 01:15:00
9:35 PM,69.8,64.4,83,30.04,10.0,East,5.8,-,N/A,,Clear,80,2013-08-30 01:35:00
9:55 PM,69.8,64.4,83,30.04,10.0,ENE,4.6,-,N/A,,Clear,70,2013-08-30 01:55:00
10:15 PM,69.8,64.4,83,30.04,10.0,ENE,3.5,-,N/A,,Clear,70,2013-08-30 02:15:00
10:35 PM,69.8,64.4,83,30.04,10.0,East,4.6,-,N/A,,Clear,80,2013-08-30 02:35:00
10:55 PM,69.8,64.4,83,30.04,10.0,ENE,3.5,-,N/A,,Partly Cloudy,60,2013-08-30 02:55:00
11:15 PM,69.8,64.4,83,30.03,10.0,Calm,Calm,-,N/A,,Partly Cloudy,0,2013-08-30 03:15:00
11:35 PM,68.0,64.4,88,30.04,10.0,Calm,Calm,-,N/A,,Partly Cloudy,0,2013-08-30 03:35:00
11:55 PM,66.2,62.6,88,30.03,10.0,Calm,Calm,-,N/A,,Partly Cloudy,0,2013-08-30 03:55:00